This is the latest recevied weather packets stored in our database for station/object KM4KMS. If no packets are shown the sender has not sent any weather packets the latest 1 day(s).
| Time | Temp. | Humidity | Pressure | Rain* | Wind** | Luminosity | Snow |
|---|---|---|---|---|---|---|---|
| 1778040710 | 14.44° C | 99% | 1005.2 hPa | 1.78 mm | 0.89 m/s, 194° | 0 W/m² | - |
| 1778040407 | 14.44° C | 99% | 1005.2 hPa | 0 mm | 1.34 m/s, 226° | 0 W/m² | - |
| 1778040104 | 14.44° C | 99% | 1005.3 hPa | 0 mm | 0.89 m/s, 190° | 0 W/m² | - |
| 1778039801 | 14.44° C | 99% | 1005.4 hPa | 0 mm | 0.45 m/s, 187° | 0 W/m² | - |
| 1778039497 | 14.44° C | 99% | 1005.3 hPa | 1.27 mm | 2.24 m/s, 217° | 0 W/m² | - |
| 1778039195 | 14.44° C | 99% | 1005.6 hPa | 1.27 mm | 1.79 m/s, 206° | 0 W/m² | - |
| 1778038892 | 14.44° C | 99% | 1005.7 hPa | 0 mm | 1.79 m/s, 190° | 0 W/m² | - |
| 1778038589 | 14.44° C | 99% | 1006 hPa | 0 mm | 0.89 m/s, 190° | 0 W/m² | - |
| 1778038286 | 14.44° C | 99% | 1006 hPa | 1.78 mm | 1.34 m/s, 221° | 0 W/m² | - |
| 1778037983 | 15° C | 99% | 1006.1 hPa | 3.05 mm | 2.24 m/s, 225° | 0 W/m² | - |
| 1778037680 | 15° C | 99% | 1006.3 hPa | 3.05 mm | 0.89 m/s, 288° | 0 W/m² | - |
| 1778037377 | 15° C | 99% | 1006.4 hPa | 6.1 mm | 2.24 m/s, 242° | 0 W/m² | - |
| 1778037074 | 15° C | 99% | 1006.6 hPa | 4.32 mm | 3.58 m/s, 223° | 0 W/m² | - |
| 1778036772 | 15° C | 99% | 1006.6 hPa | 1.78 mm | 3.13 m/s, 245° | 0 W/m² | - |
| 1778036469 | 15° C | 99% | 1006.5 hPa | 3.56 mm | 1.34 m/s, 201° | 0 W/m² | - |
| 1778036161 | 15.56° C | 98% | 1006.6 hPa | 1.27 mm | 1.79 m/s, 212° | 0 W/m² | - |
| 1778035856 | 15.56° C | 96% | 1006.7 hPa | 0 mm | 2.68 m/s, 253° | 0 W/m² | - |
| 1778035554 | 15.56° C | 94% | 1006.7 hPa | 0 mm | 3.58 m/s, 235° | 0 W/m² | - |
| 1778035250 | 16.11° C | 93% | 1006.7 hPa | 0 mm | 4.02 m/s, 233° | 0 W/m² | - |
| 1778034946 | 16.11° C | 92% | 1007.1 hPa | 0 mm | 3.58 m/s, 246° | 0 W/m² | - |
| 1778034644 | 16.11° C | 91% | 1006.9 hPa | 0 mm | 1.34 m/s, 265° | 0 W/m² | - |
| 1778034341 | 16.11° C | 90% | 1006.4 hPa | 0 mm | 1.34 m/s, 262° | 0 W/m² | - |
| 1778034039 | 16.11° C | 90% | 1006.3 hPa | 0 mm | 2.68 m/s, 252° | 0 W/m² | - |
| 1778033736 | 16.11° C | 90% | 1006.3 hPa | 0 mm | 1.79 m/s, 226° | 0 W/m² | - |
| 1778033433 | 15.56° C | 95% | 1006.4 hPa | 0 mm | 0.45 m/s, 290° | 0 W/m² | - |
* Rain latest hour (hover to see other rain measurements)
** Current wind speed in m/s (hover to see current wind gust speed)